Kenosha, WI

12:49 AM CDT on July 22, 2017 (GMT -0500)
Kenosha Regional

Weather History for KENW - November, 2012

Change the Weather History Date:

Tuesday, November 27, 2012

  Actual Average Record
Temperature  
Mean Temperature 22 °F -  
Max Temperature 33 °F 41 °F 66 °F (1990)
Min Temperature 12 °F 28 °F 4 °F (1955)
Degree Days  
Heating Degree Days 42    
Moisture  
Dew Point 9 °F    
Average Humidity 55    
Maximum Humidity 73    
Minimum Humidity 37    
Precipitation  
Precipitation 0.00 in - - ()
Sea Level Pressure  
Sea Level Pressure 30.34 in    
Wind  
Wind Speed 7 mph (West)    
Max Wind Speed 13 mph    
Max Gust Speed -    
Visibility 10 miles    
Events      
Averages and records for this station are not official NWS values.
T = Trace of Precipitation, MM = Missing Value Source: NWS Daily Summary

Daily Weather History Graph

Daily Weather History Graph

Search for Another Location

Airport or City:

Trip Planner

Search our weather history database for the weather conditions in past years. The results will help you decide how hot, cold, wet, or windy it might be!

Date:

Astronomy

Nov. 27, 2012 Rise Set
Actual Time 6:58 AM CST 4:20 PM CST
Civil Twilight 6:26 AM CST 4:51 PM CST
Nautical Twilight 5:51 AM CST 5:26 PM CST
Astronomical Twilight 5:18 AM CST 6:00 PM CST
Moon 3:52 PM CST (11/27) 6:02 AM CST (11/27)
Length of Visible Light 10h 25m
Length of Day
9h 22m
Waxing Gibbous, 99% of the Moon is Illuminated
Nov 27
Waxing Gibbous
Nov 28
Full
Dec 6
Last Quarter
Dec 13
New
Dec 19
First Quarter

Hourly Weather History & Observations

Time (CST) Temp. Windchill Dew Point Humidity Pressure Visibility Wind Dir Wind Speed Gust Speed Precip Events Conditions
12:53 AM 18.0 °F 8.7 °F 7.0 °F 62% 30.39 in 10.0 mi NW 6.9 mph - N/A   Clear
1:53 AM 12.0 °F 4.1 °F 5.0 °F 73% 30.40 in 10.0 mi WNW 4.6 mph - N/A   Clear
2:53 AM 14.0 °F 6.5 °F 6.1 °F 71% 30.39 in 10.0 mi WNW 4.6 mph - N/A   Clear
4:53 AM 14.0 °F 3.9 °F 6.1 °F 71% 30.40 in 10.0 mi WNW 6.9 mph - N/A   Clear
5:53 AM 12.9 °F 5.2 °F 5.0 °F 71% 30.40 in 10.0 mi WNW 4.6 mph - N/A   Clear
6:53 AM 12.0 °F 4.1 °F 5.0 °F 73% 30.40 in 10.0 mi West 4.6 mph - N/A   Clear
7:53 AM 16.0 °F - 8.1 °F 71% 30.41 in 10.0 mi North - - N/A   Clear
8:53 AM 19.9 °F 11.1 °F 10.0 °F 65% 30.42 in 10.0 mi West 6.9 mph - N/A   Clear
9:53 AM 24.1 °F 15.2 °F 10.0 °F 55% 30.42 in 10.0 mi WSW 8.1 mph - N/A   Clear
10:53 AM 28.9 °F 21.1 °F 10.0 °F 45% 30.40 in 10.0 mi West 8.1 mph - N/A   Clear
11:53 AM 30.9 °F 24.3 °F 9.0 °F 40% 30.38 in 10.0 mi West 6.9 mph - N/A   Clear
12:53 PM 33.1 °F 26.1 °F 9.0 °F 37% 30.35 in 10.0 mi West 8.1 mph - N/A   Clear
2:53 PM 33.1 °F 26.1 °F 9.0 °F 37% 30.29 in 10.0 mi WSW 8.1 mph - N/A   Clear
3:53 PM 32.0 °F 24.2 °F 9.0 °F 38% 30.28 in 10.0 mi SSW 9.2 mph - N/A   Clear
4:53 PM 28.0 °F 21.7 °F 10.0 °F 47% 30.28 in 10.0 mi SW 5.8 mph - N/A   Clear
5:53 PM 28.0 °F 21.7 °F 10.0 °F 47% 30.28 in 10.0 mi SW 5.8 mph - N/A   Clear
6:53 PM 28.0 °F 19.3 °F 10.9 °F 49% 30.27 in 10.0 mi SW 9.2 mph - N/A   Mostly Cloudy
7:53 PM 28.9 °F 20.4 °F 12.0 °F 49% 30.27 in 10.0 mi SW 9.2 mph - N/A   Overcast
8:53 PM 30.0 °F 21.1 °F 12.0 °F 47% 30.26 in 10.0 mi SW 10.4 mph - N/A   Overcast
9:53 PM 28.9 °F 19.2 °F 12.9 °F 51% 30.25 in 10.0 mi WSW 11.5 mph - N/A   Overcast
10:53 PM 28.9 °F 18.6 °F 12.9 °F 51% 30.24 in 10.0 mi WSW 12.7 mph - N/A   Overcast
11:53 PM 30.0 °F 20.0 °F 14.0 °F 51% 30.24 in 10.0 mi West 12.7 mph - N/A   Overcast